カタログに戻る

STARLINK-4764

運用中通信VLEO
NORAD 53827·PAYLOAD·🇺🇸 United States

打ち上げ Sep 19, 2022 から Cape Canaveral Space Force Station

Loading…

次のパス (今後24時間)

TLE

最新Source: CelesTrak SupGP

元期: Sep 15, 2026, 01:53 UTC

1 53827C 22114K   26258.07895833  .00009844  00000+0  28171-3 0  2585
2 53827  53.1597 165.5954 0001269  83.3924 237.1705 15.35388266    12

AllMySatでSTARLINK-4764をリアルタイム追跡

Download on the App Store